Location: F?ge?el
(45.8833°N, 22.5833°E)
Time: 12:22:17
(UTC+00:00)

USA 281 - Pass Details

Date: 17 November 2025
Orbit: 1079 x 1080 km, 106.0° (Epoch: 08 December)

Event Time Altitude Azimuth Distance (km) Brightness Sun altitude
Exits shadow 17:15:09 44° 61° (ENE) 1,451 3.4 -24.0°
Maximum altitude 17:15:24 45° 55° (NE) 1,448 3.5 -24.1°
Drops below altitude 10° 17:21:34 10° 345° (NNW) 2,929 5.6 -25.1°
Sets 17:24:11 0° 340° (NNW) 3,889 6.4 -25.6°
